STARLINK-35496 (66114 NORAD) Tracking and Keplerian Element Data

This shows tracking and keplerian element data for the satellite.

Feedback or suggestion? Click here.




ElementValue
Catalog66114
NameSTARLINK-35496
Epoch Orbit1034
Epoch Day353.89099726
Epoch Year2025
RAAN53.7891
Inclination53.1607
Eccentricity0.0001118
Argument of Perigee92.837
Mean Anonmoly267.2763
Mean Motion15.39628203
Decay Rate0.00022395
L11 66114U 25237A 25353.89099726 .00022395 00000+0 56806-3 0 9993
L22 66114 53.1607 53.7891 0001118 92.8370 267.2763 15.39628203 10345



Live tracking and technical data element details for STARLINK-35496 (NORAD 66114). STARLINK-35496 can be tracked NOW for your location showing map with azimuth and elevation plus other details from your city location.







IsCatalogInMostPopularTable: catalog: 66114, numindb: 6
Update: records affected: 1



GetName: 66114 STARLINK-35496

Hit Count: updated at: Tue, 10 Feb 2026 04:01:58 GMT